EW5526 Weather Reports


Display with metric or nautical units.
time (UTC)temp
F
wind
direction
speed
MPH
gust
MPH
rain 1hr
in
rain 24hr
in
rain mn
in
humidity
%
barometer
mb
20190323222119 50 277 2.0 7.0 0.00 0.01 0.01 70 1020.0
20190323221619 50 52 7.0 7.0 0.00 0.01 0.01 71 1020.0
20190323221120 50 316 4.0 7.0 0.00 0.01 0.01 71 1020.1
20190323220620 51 55 6.0 7.0 0.00 0.01 0.01 70 1020.2
20190323220122 51 308 3.0 7.0 0.00 0.01 0.01 71 1020.2
20190323215620 51 62 4.0 7.0 0.00 0.01 0.01 70 1020.0
20190323215119 51 102 6.0 7.0 0.00 0.01 0.01 70 1020.0
20190323214622 51 248 7.0 10.0 0.00 0.01 0.01 70 1020.0
20190323214122 51 217 0.0 10.0 0.00 0.01 0.01 70 1019.9
20190323213607 51 73 4.0 8.0 0.00 0.01 0.01 69 1019.9
20190323213136 51 188 3.0 10.0 0.00 0.01 0.01 69 1019.9
20190323212638 51 359 2.0 10.0 0.00 0.01 0.01 69 1019.7
20190323212111 51 37 4.0 10.0 0.00 0.01 0.01 69 1019.7
20190323211612 51 306 5.0 10.0 0.00 0.01 0.01 70 1019.7
20190323211113 51 240 3.0 8.0 0.00 0.01 0.01 73 1019.7
20190323210616 51 158 7.0 8.0 0.00 0.01 0.01 75 1019.7
20190323210116 51 68 3.0 8.0 0.00 0.01 0.01 76 1019.7
20190323205617 50 0 5.0 8.0 0.00 0.01 0.01 79 1019.7
20190323205119 50 0 2.0 7.0 0.00 0.01 0.01 82 1019.7
20190323204619 50 219 1.0 8.0 0.00 0.01 0.01 83 1019.7
20190323204119 50 0 2.0 9.0 0.00 0.01 0.01 85 1019.7
20190323203620 50 294 9.0 9.0 0.00 0.01 0.01 86 1019.7
20190323203121 51 0 5.0 7.0 0.00 0.01 0.01 86 1019.7
20190323202629 51 6 5.0 7.0 0.00 0.01 0.01 86 1019.7
20190323202109 51 237 6.0 8.0 0.00 0.01 0.01 85 1019.7
20190323201619 51 277 6.0 8.0 0.00 0.01 0.01 85 1019.7
20190323201129 51 167 3.0 5.0 0.00 0.01 0.01 84 1019.7
20190323200607 51 253 0.0 5.0 0.00 0.01 0.01 84 1019.7
20190323200109 51 171 0.0 5.0 0.00 0.01 0.01 83 1019.7
20190323195611 51 0 0.0 7.0 0.00 0.01 0.01 82 1019.7
20190323195115 52 357 4.0 7.0 0.00 0.01 0.01 82 1019.7
20190323194617 52 353 1.0 7.0 0.00 0.01 0.01 80 1019.7
20190323194118 52 357 2.0 7.0 0.00 0.01 0.01 79 1019.6
20190323193618 52 353 0.0 4.0 0.00 0.01 0.01 79 1019.6
20190323193119 52 277 3.0 7.0 0.00 0.01 0.01 78 1019.6
20190323192619 52 357 5.0 8.0 0.00 0.01 0.01 77 1019.4
20190323192118 52 357 5.0 8.0 0.00 0.01 0.01 76 1019.4
20190323191618 52 243 5.0 9.0 0.00 0.01 0.01 77 1019.4
20190323191118 52 34 6.0 10.0 0.00 0.01 0.01 78 1019.3
20190323190619 52 1 3.0 10.0 0.00 0.01 0.01 78 1019.3
20190323190119 52 344 6.0 8.0 0.00 0.01 0.01 79 1019.3
20190323185618 52 0 2.0 8.0 0.00 0.01 0.01 79 1019.0
20190323185118 52 89 3.0 8.0 0.00 0.01 0.01 79 1019.0
20190323184618 52 359 6.0 7.0 0.00 0.01 0.01 78 1019.0
20190323184120 52 0 1.0 8.0 0.00 0.01 0.01 76 1019.0
20190323183618 52 0 1.0 10.0 0.00 0.01 0.01 74 1019.0
20190323183118 52 356 3.0 10.0 0.00 0.01 0.01 71 1019.0
20190323182618 52 41 3.0 11.0 0.00 0.01 0.01 68 1018.8
20190323182119 52 339 7.0 11.0 0.00 0.01 0.01 66 1018.8
20190323181621 52 147 8.0 10.0 0.00 0.01 0.01 64 1018.8
20190323181121 53 353 5.0 11.0 0.00 0.01 0.01 64 1018.9
20190323180621 53 102 7.0 11.0 0.00 0.01 0.01 64 1018.9
20190323180118 53 1 0.0 8.0 0.00 0.01 0.01 62 1018.9
20190323175618 53 346 3.0 10.0 0.00 0.01 0.01 63 1018.6
20190323175118 53 357 5.0 10.0 0.00 0.01 0.01 63 1018.6
20190323174618 53 0 2.0 12.0 0.00 0.01 0.01 62 1018.6
20190323174119 53 356 5.0 12.0 0.00 0.01 0.01 62 1018.5
20190323173618 53 281 5.0 12.0 0.00 0.01 0.01 62 1018.5
20190323173119 54 20 3.0 12.0 0.00 0.01 0.01 62 1018.5
20190323172619 54 31 3.0 10.0 0.00 0.01 0.01 61 1018.4
20190323172119 54 0 2.0 11.0 0.00 0.01 0.01 61 1018.4
20190323171619 54 268 5.0 11.0 0.00 0.01 0.01 61 1018.4
20190323171119 55 0 4.0 11.0 0.00 0.01 0.01 60 1018.6
20190323170619 55 359 4.0 11.0 0.00 0.01 0.01 59 1018.6
20190323170119 55 359 6.0 11.0 0.00 0.01 0.01 58 1018.6
20190323165619 55 359 1.0 12.0 0.00 0.01 0.01 57 1018.5
20190323165119 55 346 7.0 12.0 0.00 0.01 0.01 57 1018.5
20190323164619 56 0 0.0 10.0 0.00 0.01 0.01 57 1018.5
20190323164119 56 0 10.0 10.0 0.00 0.01 0.01 58 1018.3
20190323163619 56 359 2.0 8.0 0.00 0.01 0.01 58 1018.3
20190323163118 57 357 6.0 11.0 0.00 0.01 0.01 58 1018.4
20190323162619 57 31 6.0 11.0 0.00 0.01 0.01 57 1018.3
20190323162118 57 354 2.0 10.0 0.00 0.01 0.01 57 1018.3
20190323161618 57 263 4.0 11.0 0.00 0.01 0.01 56 1018.3
20190323161119 58 24 0.0 11.0 0.00 0.01 0.01 57 1018.3
20190323160619 58 359 7.0 11.0 0.00 0.01 0.01 56 1018.3
20190323160119 58 332 11.0 11.0 0.00 0.01 0.01 54 1018.3
20190323155619 58 336 7.0 12.0 0.00 0.01 0.01 55 1018.2
20190323155119 59 322 12.0 12.0 0.00 0.01 0.01 55 1018.3
20190323154619 59 359 2.0 11.0 0.00 0.01 0.01 54 1018.3
20190323154119 59 359 11.0 12.0 0.00 0.01 0.01 54 1018.2
20190323153618 59 352 3.0 12.0 0.00 0.01 0.01 53 1018.2
20190323153119 60 0 0.0 11.0 0.00 0.01 0.01 52 1018.2
20190323152619 60 333 2.0 12.0 0.00 0.01 0.01 52 1018.2
20190323152119 60 313 5.0 12.0 0.00 0.01 0.01 52 1018.2
20190323151619 60 350 3.0 8.0 0.00 0.01 0.01 52 1018.2
20190323151119 60 339 1.0 12.0 0.00 0.01 0.01 54 1018.3
20190323150619 60 357 6.0 12.0 0.00 0.01 0.01 53 1018.3
20190323150119 60 356 5.0 11.0 0.00 0.01 0.01 52 1018.3
20190323145618 60 206 9.0 11.0 0.00 0.01 0.01 53 1018.2
20190323145119 60 359 7.0 11.0 0.00 0.01 0.01 53 1018.2
20190323144618 60 344 7.0 11.0 0.00 0.01 0.01 53 1018.2
20190323144118 61 346 1.0 8.0 0.00 0.01 0.01 53 1018.3
20190323143619 61 347 7.0 12.0 0.00 0.01 0.01 53 1018.3
20190323143119 61 359 2.0 12.0 0.00 0.01 0.01 52 1018.3
20190323142619 61 0 3.0 10.0 0.00 0.01 0.01 53 1018.4
20190323142119 61 1 6.0 11.0 0.00 0.01 0.01 54 1018.4
20190323141619 61 349 6.0 11.0 0.00 0.01 0.01 54 1018.4
20190323141119 61 32 4.0 11.0 0.00 0.01 0.01 56 1018.3
20190323140619 61 274 2.0 12.0 0.00 0.01 0.01 55 1018.3
20190323140119 61 347 8.0 12.0 0.00 0.01 0.01 54 1018.3
20190323135619 61 0 2.0 11.0 0.00 0.01 0.01 56 1018.4
20190323135119 61 0 5.0 11.0 0.00 0.01 0.01 56 1018.4
20190323134619 61 359 10.0 10.0 0.00 0.01 0.01 57 1018.4
20190323134119 62 3 1.0 8.0 0.00 0.01 0.01 55 1018.4
20190323133619 62 357 2.0 8.0 0.00 0.01 0.01 56 1018.5
20190323133119 62 72 4.0 7.0 0.00 0.01 0.01 56 1018.5
20190323132619 62 357 4.0 7.0 0.00 0.01 0.01 56 1018.6
20190323132119 61 0 0.0 7.0 0.00 0.01 0.01 56 1018.6
20190323131619 61 1 0.0 9.0 0.00 0.01 0.01 57 1018.6
20190323131119 61 165 6.0 9.0 0.00 0.01 0.01 57 1018.6
20190323130619 62 332 2.0 7.0 0.00 0.01 0.01 56 1018.6
20190323130119 61 357 5.0 10.0 0.00 0.01 0.01 57 1018.6
20190323125619 61 350 6.0 10.0 0.00 0.01 0.01 57 1018.8
20190323125119 61 128 0.0 9.0 0.00 0.01 0.01 57 1018.8
20190323124619 61 246 1.0 11.0 0.00 0.01 0.01 56 1018.8
20190323124119 61 315 6.0 11.0 0.00 0.01 0.01 56 1019.0
20190323123619 61 40 0.0 8.0 0.00 0.01 0.01 56 1019.0
20190323123119 61 357 3.0 9.0 0.00 0.01 0.01 57 1019.0
20190323122619 61 128 5.0 9.0 0.00 0.01 0.01 56 1019.0
20190323122120 61 107 6.0 9.0 0.00 0.02 0.01 56 1019.0
20190323121619 62 359 6.0 9.0 0.00 0.02 0.01 55 1019.0
20190323121119 61 234 0.0 5.0 0.00 0.02 0.01 55 1019.2
20190323120619 63 150 5.0 5.0 0.00 0.02 0.01 52 1019.3
20190323120119 62 121 0.0 7.0 0.00 0.02 0.01 52 1019.2
20190323115619 62 66 0.0 14.0 0.00 0.02 0.01 50 1019.4
20190323115119 62 52 0.0 14.0 0.00 0.02 0.01 48 1019.4
20190323114619 61 0 0.0 7.0 0.00 0.02 0.01 47 1019.3
20190323114119 61 42 3.0 7.0 0.00 0.02 0.01 49 1019.4
20190323113619 61 359 5.0 7.0 0.00 0.02 0.01 52 1019.4
20190323113119 61 54 5.0 7.0 0.00 0.02 0.01 51 1019.4
20190323112619 60 330 6.0 11.0 0.00 0.02 0.01 50 1019.5
20190323112119 60 295 3.0 11.0 0.00 0.02 0.01 52 1019.5
20190323111619 61 349 5.0 8.0 0.00 0.03 0.01 50 1019.5
20190323111119 61 359 3.0 8.0 0.00 0.03 0.01 49 1019.5
20190323110619 61 315 0.0 8.0 0.00 0.03 0.01 48 1019.5
20190323110119 62 359 6.0 8.0 0.00 0.03 0.01 47 1019.6
20190323105619 61 319 0.0 8.0 0.00 0.03 0.01 45 1019.6
20190323105119 61 41 1.0 6.0 0.00 0.04 0.01 46 1019.6
20190323104619 61 359 5.0 6.0 0.00 0.04 0.01 47 1019.6
20190323104119 61 356 0.0 0.0 0.00 0.04 0.01 46 1019.7
20190323103619 61 17 0.0 7.0 0.00 0.04 0.01 49 1019.7
20190323103119 60 292 7.0 7.0 0.00 0.04 0.01 51 1019.7
20190323102619 61 23 0.0 6.0 0.00 0.04 0.01 49 1019.8
20190323102119 61 325 2.0 6.0 0.00 0.04 0.01 49 1019.8
20190323101619 61 304 0.0 5.0 0.00 0.05 0.01 48 1019.8
20190323101119 60 342 0.0 0.0 0.00 0.05 0.01 48 1020.0
20190323100619 60 305 0.0 7.0 0.00 0.05 0.01 49 1020.0
20190323100119 60 356 5.0 7.0 0.00 0.05 0.01 49 1020.0
20190323095619 60 188 0.0 7.0 0.00 0.05 0.01 49 1020.0
20190323095119 60 356 6.0 7.0 0.00 0.05 0.01 48 1020.0
20190323094619 60 347 0.0 7.0 0.00 0.05 0.01 48 1020.0
20190323094119 60 333 0.0 5.0 0.00 0.05 0.01 46 1020.0
20190323093619 60 333 0.0 5.0 0.00 0.05 0.01 46 1020.0
20190323093119 60 295 0.0 3.0 0.00 0.05 0.01 46 1020.0
20190323092619 60 353 0.0 2.0 0.00 0.05 0.01 47 1019.9
20190323092120 59 357 0.0 5.0 0.00 0.05 0.01 47 1019.9
20190323091619 59 336 0.0 5.0 0.00 0.05 0.01 47 1019.9
20190323091119 60 339 0.0 0.0 0.00 0.05 0.01 46 1020.0
20190323090619 61 35 0.0 0.0 0.00 0.05 0.01 55 1020.1
20190323090119 60 189 0.0 0.0 0.00 0.05 0.01 56 1020.0
20190323085619 60 0 0.0 0.0 0.00 0.05 0.01 56 1020.1
20190323085119 60 151 0.0 0.0 0.00 0.05 0.01 58 1020.1
20190323084619 60 107 0.0 0.0 0.00 0.05 0.01 57 1020.1
20190323084119 59 66 0.0 0.0 0.00 0.05 0.01 57 1019.9
20190323083619 59 275 0.0 0.0 0.00 0.05 0.01 61 1019.9
20190323083119 60 261 0.0 0.0 0.00 0.05 0.01 62 1019.9
20190323082619 59 333 0.0 0.0 0.00 0.05 0.01 58 1019.8
20190323082119 59 216 0.0 0.0 0.00 0.05 0.01 61 1019.8
20190323081620 59 200 0.0 0.0 0.00 0.05 0.01 65 1019.8
20190323081119 60 198 0.0 0.0 0.00 0.05 0.01 64 1019.8
20190323080619 60 308 0.0 0.0 0.00 0.05 0.01 62 1019.7
20190323080119 59 308 0.0 0.0 0.00 0.05 0.01 54 1019.7
20190323075619 59 354 0.0 0.0 0.00 0.05 0.01 45 1019.8
20190323075119 59 353 0.0 0.0 0.00 0.05 0.01 41 1019.8
20190323074619 58 354 0.0 0.0 0.00 0.05 0.01 43 1019.7
20190323074119 58 353 0.0 0.0 0.00 0.05 0.01 44 1019.6
20190323073619 58 353 0.0 0.0 0.00 0.05 0.01 48 1019.6
20190323073119 58 353 0.0 0.0 0.00 0.05 0.01 45 1019.6
20190323072619 58 356 0.0 0.0 0.00 0.05 0.01 48 1019.6
20190323072119 58 356 0.0 0.0 0.00 0.05 0.01 52 1019.6
20190323071619 58 354 0.0 0.0 0.00 0.05 0.01 53 1019.6
20190323071120 57 354 0.0 0.0 0.00 0.05 0.01 54 1019.6
20190323070619 56 354 0.0 0.0 0.00 0.05 0.01 55 1019.5
20190323070119 56 354 0.0 0.0 0.00 0.05 0.01 56 1019.5
20190323065619 56 353 0.0 0.0 0.00 0.05 0.01 57 1019.7
20190323065119 55 354 0.0 0.0 0.00 0.05 0.01 58 1019.6
20190323064619 55 353 0.0 0.0 0.00 0.05 0.01 60 1019.6
20190323064120 54 353 0.0 0.0 0.00 0.05 0.01 62 1019.6
20190323063620 54 354 0.0 0.0 0.00 0.05 0.01 63 1019.6
20190323063119 53 354 0.0 0.0 0.00 0.05 0.01 64 1019.5
20190323062619 53 353 0.0 0.0 0.00 0.05 0.01 67 1019.5
20190323062119 52 354 0.0 0.0 0.00 0.05 0.01 67 1019.5
20190323061620 52 353 0.0 0.0 0.00 0.05 0.01 68 1019.5
20190323061119 52 353 0.0 0.0 0.00 0.05 0.01 69 1019.4
20190323060619 51 353 0.0 0.0 0.00 0.05 0.01 70 1019.3
20190323060119 51 353 0.0 0.0 0.00 0.05 0.01 70 1019.3
20190323055619 51 353 0.0 0.0 0.00 0.05 0.01 72 1019.3
20190323055120 50 353 0.0 0.0 0.00 0.05 0.01 73 1019.3
20190323054619 50 353 0.0 0.0 0.00 0.06 0.01 72 1019.3
20190323054120 50 353 0.0 0.0 0.00 0.06 0.01 73 1019.3
20190323053620 50 353 0.0 0.0 0.00 0.06 0.01 74 1019.3
20190323053120 49 353 0.0 0.0 0.00 0.06 0.01 76 1019.2
20190323052620 49 353 0.0 0.0 0.00 0.06 0.01 76 1019.1
20190323052120 49 56 0.0 0.0 0.00 0.06 0.01 76 1019.1
20190323051620 49 62 0.0 0.0 0.00 0.06 0.01 76 1019.1
20190323051120 49 65 0.0 0.0 0.00 0.06 0.01 76 1019.0
20190323050619 49 16 0.0 0.0 0.00 0.07 0.01 77 1019.0
20190323050120 49 25 0.0 0.0 0.00 0.07 0.01 77 1019.0
20190323045620 49 27 0.0 0.0 0.00 0.08 0.01 78 1019.0
20190323045120 49 32 0.0 0.0 0.00 0.08 0.01 78 1019.0
20190323044620 49 14 0.0 0.0 0.00 0.09 0.01 78 1019.0
20190323044119 49 14 0.0 0.0 0.00 0.09 0.01 78 1019.0
20190323043620 49 14 0.0 0.0 0.00 0.10 0.01 78 1019.0
20190323043120 49 14 0.0 0.0 0.00 0.10 0.01 78 1019.0
20190323042620 49 14 0.0 0.0 0.00 0.11 0.01 78 1018.9
20190323042120 49 14 0.0 0.0 0.00 0.12 0.01 78 1018.9
20190323041620 49 14 0.0 0.0 0.00 0.15 0.01 78 1018.9
20190323041120 49 14 0.0 0.0 0.00 0.15 0.01 78 1018.9
20190323040620 49 14 0.0 0.0 0.00 0.15 0.01 77 1018.9
20190323040119 49 14 0.0 0.0 0.00 0.15 0.01 77 1018.9
20190323035620 49 14 0.0 0.0 0.00 0.15 0.01 78 1018.8
20190323035120 49 14 0.0 0.0 0.00 0.15 0.01 78 1018.8
20190323034620 49 16 0.0 0.0 0.00 0.15 0.01 78 1018.8
20190323034119 49 17 0.0 0.0 0.00 0.15 0.01 79 1018.9
20190323033619 49 20 0.0 0.0 0.00 0.16 0.01 80 1018.9
20190323033120 49 18 0.0 0.0 0.00 0.16 0.01 81 1018.9
20190323032620 48 47 0.0 0.0 0.00 0.17 0.01 83 1018.9
20190323032120 48 42 0.0 0.0 0.00 0.18 0.01 84 1018.9
20190323031619 48 47 0.0 0.0 0.00 0.19 0.01 84 1018.9
20190323031120 49 35 0.0 0.0 0.01 0.20 0.01 84 1018.9
20190323030619 49 18 0.0 0.0 0.01 0.20 0.01 84 1018.9
20190323030120 49 18 0.0 0.0 0.01 0.21 0.01 84 1018.9
20190323025620 49 18 0.0 0.0 0.01 0.21 0.01 84 1018.9
20190323025120 49 18 0.0 0.0 0.01 0.24 0.01 85 1018.9
20190323024620 49 20 0.0 0.0 0.01 0.25 0.01 85 1018.9
20190323024120 49 17 0.0 0.0 0.01 0.25 0.01 85 1019.0
20190323023619 49 11 0.0 0.0 0.01 0.26 0.01 85 1019.0
20190323023120 49 11 0.0 0.0 0.01 0.29 0.01 84 1019.0
20190323022619 50 237 0.0 0.0 0.01 0.34 0.01 82 1019.1
20190323022120 51 239 0.0 0.0 0.01 0.37 0.01 78 1019.1
20190323021620 51 80 0.0 0.0 0.01 0.37 0.01 74 1019.1
20190323021120 51 40 0.0 0.0 0.00 0.36 0.00 71 1018.9
20190323020620 51 184 0.0 0.0 0.00 0.36 0.00 70 1018.9
20190323020120 51 160 0.0 0.0 0.00 0.36 0.00 71 1018.9
20190323015620 51 42 0.0 0.0 0.00 0.36 0.00 71 1019.0
20190323015120 51 42 0.0 0.0 0.00 0.36 0.00 71 1019.0
20190323014620 51 76 0.0 0.0 0.00 0.36 0.00 71 1019.0
20190323014120 51 78 0.0 0.0 0.00 0.36 0.00 72 1019.1
20190323013619 51 79 0.0 0.0 0.00 0.36 0.00 72 1019.1
20190323013120 51 83 0.0 0.0 0.00 0.36 0.00 72 1019.1
20190323012620 51 82 0.0 0.0 0.00 0.36 0.00 72 1019.2
20190323012120 51 51 0.0 0.0 0.00 0.36 0.00 72 1019.2
20190323011620 51 99 0.0 0.0 0.00 0.36 0.00 74 1019.2
20190323011120 51 58 0.0 0.0 0.00 0.36 0.00 75 1019.6
20190323010620 51 44 0.0 0.0 0.00 0.36 0.00 76 1019.6
20190323010120 51 47 0.0 0.0 0.00 0.36 0.00 76 1019.6
20190323005619 51 205 0.0 0.0 0.00 0.36 0.00 75 1019.5
20190323005120 51 213 0.0 0.0 0.00 0.36 0.00 75 1019.5
20190323004620 51 203 0.0 0.0 0.00 0.36 0.00 76 1019.5
20190323004120 51 222 0.0 0.0 0.00 0.36 0.00 76 1019.6
20190323003620 51 45 0.0 0.0 0.00 0.36 0.00 77 1019.6
20190323003120 51 210 0.0 0.0 0.00 0.36 0.00 77 1019.6
20190323002620 51 226 0.0 0.0 0.00 0.36 0.00 78 1019.6
20190323002120 51 210 0.0 0.0 0.00 0.36 0.00 79 1019.6
20190323001620 51 216 0.0 0.0 0.00 0.36 0.00 79 1019.6
20190323001120 51 232 0.0 0.0 0.00 0.36 0.00 80 1019.8
20190323000620 51 260 0.0 0.0 0.00 0.36 0.00 80 1019.8
20190323000120 51 288 0.0 0.0 0.00 0.36 0.00 81 1019.8
20190322235620 51 160 0.0 0.0 0.00 0.36 0.00 82 1019.8
20190322235120 50 339 0.0 0.0 0.00 0.36 0.00 83 1019.8
20190322234620 51 257 0.0 0.0 0.00 0.36 0.00 83 1019.8
20190322234120 51 315 0.0 0.0 0.00 0.36 0.00 84 1019.7
20190322233620 51 106 0.0 0.0 0.00 0.36 0.00 85 1019.7
20190322233120 50 51 0.0 0.0 0.00 0.36 0.00 85 1019.7
20190322232620 50 182 0.0 0.0 0.00 0.36 0.00 86 1019.6
20190322232120 50 92 0.0 0.0 0.00 0.36 0.00 87 1019.6
20190322231620 50 89 0.0 0.0 0.00 0.36 0.00 87 1019.6
20190322231120 50 90 0.0 0.0 0.00 0.36 0.00 88 1019.6
20190322230620 50 93 0.0 0.0 0.00 0.36 0.00 88 1019.6
20190322230120 50 110 0.0 0.0 0.00 0.36 0.00 88 1019.6
20190322225620 50 109 0.0 0.0 0.00 0.36 0.36 87 1019.6
20190322225120 50 97 0.0 0.0 0.00 0.36 0.36 87 1019.6
20190322224620 50 95 0.0 0.0 0.00 0.36 0.36 87 1019.6
20190322224120 50 96 0.0 0.0 0.00 0.36 0.36 86 1019.7
20190322223620 50 102 0.0 0.0 0.00 0.36 0.36 86 1019.7
20190322223120 50 93 0.0 0.0 0.00 0.36 0.36 85 1019.7
20190322222620 51 95 0.0 0.0 0.00 0.36 0.36 85 1019.6